Location: Dittelbrunn
(50.0738°N, 10.2196°E)
Time: 12:34:35
(UTC+00:00)

In-Cosmos 22 - Pass Details

Date: 18 September 2020
Orbit: 785 x 876 km, 81.2° (Epoch: 25 October)

Event Time Altitude Azimuth Distance (km) Brightness Sun altitude
Rises 19:07:50 0° 345° (NNW) 3,290 7.8 -16.8°
Reaches altitude 10° 19:10:13 10° 344° (NNW) 2,357 7.1 -17.1°
Maximum altitude 19:15:29 69° 262° (W) 846 4.3 -17.9°
Drops below altitude 10° 19:20:45 10° 180° (S) 2,364 6.3 -18.7°
Enters shadow 19:21:21 - 179° (S) 2,594 6.5 -18.7°
